Colorado City, AZ

5:44 PM MST on December 04, 2016 (GMT -0700)
Colorado City Municipal

Weather History for KAZC - December, 2013

Change the Weather History Date:

Tuesday, December 3, 2013

  Actual Average (KCDC) Record (KCDC)
Temperature  
Mean Temperature 40 °F 31 °F  
Max Temperature 57 °F 44 °F 68 °F (1977)
Min Temperature 24 °F 18 °F -1 °F (2004)
Degree Days  
Heating Degree Days 24 34  
Month to date heating degree days 102  
Since 1 July heating degree days 1544  
Cooling Degree Days 0 0  
Month to date cooling degree days 0  
Year to date cooling degree days 588  
Moisture  
Dew Point 28 °F    
Average Humidity 67    
Maximum Humidity 99    
Minimum Humidity 29    
Precipitation  
Precipitation 0.00 in 0.02 in 0.69 in (2013)
Month to date precipitation 0.07  
Year to date precipitation 10.54  
Sea Level Pressure  
Sea Level Pressure 29.66 in    
Wind  
Wind Speed 5 mph (South)    
Max Wind Speed 22 mph    
Max Gust Speed 31 mph    
Visibility 10 miles    
Events Snow    
T = Trace of Precipitation, MM = Missing Value Source: NWS Daily Summary

Daily Weather History Graph

Daily Weather History Graph

Search for Another Location

Airport or City:

Trip Planner

Search our weather history database for the weather conditions in past years. The results will help you decide how hot, cold, wet, or windy it might be!

Date:

Astronomy

Dec. 03, 2013 Rise Set
Actual Time 7:28 AM MST 5:15 PM MST
Civil Twilight 7:00 AM MST 5:43 PM MST
Nautical Twilight 6:27 AM MST 6:16 PM MST
Astronomical Twilight 5:56 AM MST 6:47 PM MST
Moon 8:02 AM MST (12/3) 6:22 PM MST (12/3)
Length of Visible Light 10h 43m
Length of Day
9h 46m
New Moon, 1% of the Moon is Illuminated
Dec 3
New Moon
Dec 9
First Quarter
Dec 17
Full
Dec 25
Last Quarter
Jan 1
New

Hourly Weather History & Observations

Time (MST) Temp. Windchill Dew Point Humidity Pressure Visibility Wind Dir Wind Speed Gust Speed Precip Events Conditions
12:15 AM 31.8 °F - 29.1 °F 90% 29.88 in 10.0 mi Calm Calm - N/A   Clear
12:35 AM 31.5 °F - 29.1 °F 91% 29.87 in 10.0 mi Calm Calm - N/A   Clear
12:55 AM 31.1 °F 26.4 °F 29.5 °F 94% 29.85 in 10.0 mi ESE 4.6 mph - N/A   Clear
1:15 AM 30.7 °F - 28.8 °F 92% 29.85 in 10.0 mi Calm Calm - N/A   Clear
1:35 AM 30.0 °F 25.2 °F 27.9 °F 92% 29.84 in 10.0 mi SSE 4.6 mph - N/A   Clear
1:55 AM 28.2 °F - 26.8 °F 94% 29.84 in 10.0 mi Calm Calm - N/A   Clear
2:15 AM 29.8 °F 26.3 °F 27.9 °F 92% 29.84 in 10.0 mi ESE 3.5 mph - N/A   Clear
2:35 AM 28.9 °F 25.2 °F 27.3 °F 94% 29.84 in 10.0 mi ESE 3.5 mph - N/A   Clear
2:55 AM 28.2 °F 22.0 °F 26.8 °F 94% 29.83 in 10.0 mi ESE 5.8 mph - N/A   Clear
3:15 AM 27.9 °F - 26.4 °F 94% 29.82 in 10.0 mi Calm Calm - N/A   Clear
3:35 AM 26.8 °F - 25.7 °F 96% 29.81 in 10.0 mi Calm Calm - N/A   Clear
3:55 AM 27.1 °F 21.8 °F 25.9 °F 95% 29.79 in 10.0 mi ESE 4.6 mph - N/A   Clear
4:15 AM 26.1 °F 21.9 °F 25.0 °F 96% 29.79 in 10.0 mi SE 3.5 mph - N/A   Clear
4:35 AM 26.4 °F 22.4 °F 25.0 °F 94% 29.79 in 10.0 mi ESE 3.5 mph - N/A   Clear
4:55 AM 25.7 °F 21.5 °F 24.6 °F 96% 29.79 in 10.0 mi East 3.5 mph - N/A   Clear
5:15 AM 25.5 °F 19.9 °F 24.3 °F 95% 29.79 in 10.0 mi SE 4.6 mph - N/A   Clear
5:35 AM 25.2 °F - 24.1 °F 96% 29.78 in 10.0 mi Calm Calm - N/A   Clear
5:55 AM 25.2 °F 19.5 °F 24.1 °F 96% 29.78 in 10.0 mi SSE 4.6 mph - N/A   Clear
6:15 AM 25.2 °F 19.5 °F 24.4 °F 97% 29.77 in 10.0 mi ESE 4.6 mph - N/A   Clear
6:35 AM 26.1 °F 21.9 °F 25.0 °F 96% 29.77 in 10.0 mi SSE 3.5 mph - N/A   Clear
6:55 AM 25.2 °F 20.9 °F 23.9 °F 95% 29.77 in 10.0 mi SE 3.5 mph - N/A   Clear
7:15 AM 24.8 °F 19.1 °F 23.7 °F 96% 29.77 in 10.0 mi ESE 4.6 mph - N/A   Clear
7:35 AM 25.2 °F 20.9 °F 23.7 °F 94% 29.78 in 10.0 mi SE 3.5 mph - N/A   Clear
7:55 AM 25.9 °F 21.7 °F 24.6 °F 95% 29.78 in 10.0 mi SE 3.5 mph - N/A   Clear
8:15 AM 28.0 °F 24.2 °F 26.4 °F 94% 29.77 in 10.0 mi ESE 3.5 mph - N/A   Clear
8:35 AM 29.7 °F 26.1 °F 27.7 °F 92% 29.77 in 10.0 mi SSE 3.5 mph - N/A   Clear
8:55 AM 31.3 °F - 29.3 °F 92% 29.78 in 10.0 mi Calm Calm - N/A   Clear
9:15 AM 35.1 °F - 31.3 °F 86% 29.78 in 10.0 mi Calm Calm - N/A   Clear
9:35 AM 40.1 °F 38.0 °F 32.5 °F 74% 29.77 in 10.0 mi ESE 3.5 mph - N/A   Clear
10:15 AM 46.6 °F - 30.6 °F 54% 29.77 in 10.0 mi ESE 3.5 mph - N/A   Clear
10:35 AM 47.5 °F - 29.7 °F 50% 29.76 in 10.0 mi ESE 3.5 mph - N/A   Clear
10:55 AM 49.5 °F - 28.9 °F 45% 29.75 in 10.0 mi ESE 4.6 mph - N/A   Clear
11:15 AM 51.1 °F - 27.3 °F 40% 29.73 in 10.0 mi East 4.6 mph - N/A   Clear
11:35 AM 53.1 °F - 26.8 °F 36% 29.70 in 10.0 mi ESE 6.9 mph - N/A   Clear
11:55 AM 54.7 °F - 26.1 °F 33% 29.69 in 10.0 mi West 3.5 mph - N/A   Clear
12:15 PM 54.9 °F - 25.2 °F 32% 29.67 in 10.0 mi SSW 13.8 mph 18.4 mph N/A   Clear
12:35 PM 54.9 °F - 24.8 °F 31% 29.64 in 10.0 mi South 11.5 mph - N/A   Clear
12:55 PM 55.9 °F - 24.6 °F 30% 29.63 in 10.0 mi South 15.0 mph 19.6 mph N/A   Clear
1:15 PM 56.7 °F - 24.6 °F 29% 29.61 in 10.0 mi SW 10.4 mph 23.0 mph N/A   Clear
1:35 PM 57.6 °F - 25.2 °F 29% 29.59 in 10.0 mi SW 11.5 mph 18.4 mph N/A   Clear
1:55 PM 57.4 °F - 25.2 °F 29% 29.59 in 10.0 mi West 8.1 mph - N/A   Clear
2:15 PM 56.3 °F - 25.7 °F 31% 29.57 in 10.0 mi NW 9.2 mph - N/A   Clear
2:35 PM 54.7 °F - 25.5 °F 32% 29.57 in 10.0 mi NW 9.2 mph - N/A   Scattered Clouds
2:55 PM 54.3 °F - 25.9 °F 33% 29.56 in 10.0 mi WNW 5.8 mph - N/A   Mostly Cloudy
3:15 PM 54.9 °F - 26.8 °F 34% 29.55 in 10.0 mi WSW 16.1 mph 19.6 mph N/A   Mostly Cloudy
3:35 PM 54.9 °F - 27.3 °F 35% 29.55 in 10.0 mi WSW 13.8 mph - N/A   Mostly Cloudy
3:55 PM 54.7 °F - 28.6 °F 37% 29.55 in 10.0 mi WSW 16.1 mph 24.2 mph N/A   Overcast
4:15 PM 54.3 °F - 29.7 °F 39% 29.55 in 10.0 mi WSW 15.0 mph 21.9 mph N/A   Mostly Cloudy
4:35 PM 54.0 °F - 30.0 °F 40% 29.56 in 10.0 mi SW 15.0 mph 31.1 mph N/A   Overcast
4:55 PM 53.6 °F - 30.6 °F 41% 29.54 in 10.0 mi WSW 13.8 mph 20.7 mph N/A   Overcast
5:15 PM 52.9 °F - 31.6 °F 44% 29.54 in 10.0 mi West 15.0 mph - N/A   Overcast
5:35 PM 51.3 °F - 30.9 °F 46% 29.54 in 10.0 mi NW 6.9 mph - N/A   Overcast
5:55 PM 50.0 °F - 30.2 °F 47% 29.53 in 10.0 mi NW 6.9 mph - N/A   Overcast
6:15 PM 49.3 °F - 30.4 °F 48% 29.53 in 10.0 mi Calm Calm - N/A   Overcast
6:35 PM 48.6 °F - 30.6 °F 50% 29.52 in 10.0 mi Calm Calm - N/A   Overcast
6:55 PM 48.4 °F - 30.6 °F 50% 29.51 in 10.0 mi Calm Calm - N/A   Overcast
7:15 PM 48.0 °F - 30.9 °F 52% 29.51 in 10.0 mi Calm Calm - N/A   Overcast
7:35 PM 46.9 °F - 31.8 °F 56% 29.50 in 10.0 mi Calm Calm - N/A   Overcast
7:55 PM 49.6 °F - 32.7 °F 52% 29.49 in 10.0 mi Calm Calm - N/A   Overcast
8:15 PM 50.7 °F - 33.1 °F 51% 29.49 in 10.0 mi SSW 13.8 mph 18.4 mph N/A   Overcast
8:35 PM 51.6 °F - 32.7 °F 49% 29.48 in 10.0 mi SSW 10.4 mph 16.1 mph N/A   Overcast
8:55 PM 51.6 °F - 32.9 °F 49% 29.48 in 10.0 mi SW 11.5 mph 18.4 mph N/A   Overcast
9:15 PM 50.9 °F - 32.9 °F 50% 29.49 in 10.0 mi West 10.4 mph 18.4 mph N/A   Overcast
9:35 PM 46.9 °F - 31.8 °F 56% 29.49 in 10.0 mi WNW 9.2 mph - N/A   Overcast
9:55 PM 43.9 °F 38.3 °F 30.9 °F 60% 29.49 in 10.0 mi NW 10.4 mph - N/A   Overcast
10:15 PM 39.4 °F 31.8 °F 29.1 °F 67% 29.51 in 10.0 mi NW 12.7 mph 16.1 mph N/A   Overcast
10:35 PM 36.7 °F 28.0 °F 29.1 °F 74% 29.51 in 10.0 mi NW 13.8 mph 19.6 mph N/A   Overcast
10:55 PM 34.7 °F 23.7 °F 30.2 °F 84% 29.52 in 5.0 mi NW 19.6 mph 26.5 mph N/A Snow Light Snow
11:15 PM 32.0 °F 19.5 °F 30.0 °F 92% 29.54 in 2.0 mi WNW 21.9 mph - N/A Snow Light Snow
11:35 PM 30.7 °F 18.5 °F 29.8 °F 96% 29.55 in 0.5 mi NW 19.6 mph 25.3 mph N/A Snow Snow
11:55 PM 29.7 °F 17.4 °F 29.3 °F 99% 29.55 in 1.0 mi NW 18.4 mph 26.5 mph N/A Snow Light Snow